066  
ASHW40 PHFO 010943  
RWRHI  
 
WEATHER ROUNDUP FOR HAWAII  
NATIONAL WEATHER SERVICE HONOLULU HI  
1100 PM HST THU JUN 30 2016  
 
THIS IS AN AUTOMATED REPORT THAT HAS NOT BEEN QUALITY CONTROLLED.  
 
NOTE..."FAIR" INDICATES FEW OR NO CLOUDS BELOW 12,000 FEET WITH NO  
SIGNIFICANT WEATHER AND/OR S TO VISIBILITY
.  
 
* - THESE SITES REPORT LIMITED FIELDS  
 
HIZ001>004-011000-  
KAUAI-NIIHAU-  
 
CITY SKY/WX TMP DP RH WIND PRES REMARKS
 
LIHUE APT CLOUDY 76 72 87 NE16 30.15S  
PORT ALLEN* N/A 79 N/A N/A NE18G25 N/A  
POIPU* N/A 79 N/A N/A NE9G21 N/A  
PRINCEVILLE* N/A 77 N/A N/A E8 N/A  
KOKOLE POINT* NOT AVBL  
MOLOAA DAIRY* N/A 77 72 83 E7G14 N/A  
WAIMEA HTS* N/A 77 66 69 W1G10 N/A  
PUU OPAE* N/A 70 66 88 CALM N/A  
PUU LUA* NOT AVBL  
MAKAHA RIDGE* N/A 72 66 83 CALM N/A  

 
 
HIZ005>011-011000-  
OAHU-  
 
CITY SKY/WX TMP DP RH WIND PRES REMARKS
 
HONOLULU PTCLDY 79 68 69 E6 30.09S  
KALAELOA PTCLDY 78 68 71 NE6 30.11S  
KANEOHE MCB MOCLDY 78 71 79 E10 30.10S  
WHEELER FIELD FAIR 75 68 79 E6 30.12S  
BELLOWS* N/A N/A N/A N/A NE16 N/A  
KAHUKU* N/A N/A N/A N/A VRB10G18 N/A  
WHEELER* N/A N/A N/A N/A N3G12 N/A  
WAIANAE HARBOR N/A N/A N/A N/A NE2 N/A  
DILLINGHAM* N/A 75 68 78 MISG N/A  
KAHUKU TRN* N/A 82 75 78 CALM N/A  
KAWAILOA* N/A 72 66 83 E10G25 N/A  
KII* N/A 79 72 78 E18G25 N/A  
MAKUA RANGE* N/A 90 75 62 E9G21 N/A HX 100  
OAHU FOREST NW N/A 70 N/A N/A E24 N/A  
SCHOFIELD BRK* NOT AVBL  
SCHOFIELD S* NOT AVBL  
WAIANAE VLY* NOT AVBL  
KUAOKALA* N/A 73 66 78 NE14G21 N/A  
HONOULIUULI* NOT AVBL  
MOKUOLOE IS* NOT AVBL  
PALEHUA* N/A 66 64 94 NE10G22 N/A  
WAIAWA PHB* NOT AVBL  

 
 
HIZ012>013-011000-  
MOLOKAI-  
 
CITY SKY/WX TMP DP RH WIND PRES REMARKS
 
MOLOKAI AIRPT PTCLDY 76 69 79 NE10G23 30.10S  
KALAUPAPA NOT AVBL  
MAKAPULAPAI* N/A 77 70 78 E22G29 N/A  
MOLOKAI 1* NOT AVBL  
PUU ALII* N/A 60 56 88 E3G9 N/A  

 
 
HIZ016-011000-  
KAHOOLAWE-  
 
CITY SKY/WX TMP DP RH WIND PRES REMARKS
 
KAHOOLAWE* N/A 72 N/A N/A NE1 N/A  
HAKIOAWA* N/A 72 68 88 MISG 30.51S  
HONOKANAIA* N/A 78 66 66 NE10G26 30.02S  
KANELOA* N/A 75 66 73 NE20G35 30.15R  
KEALIALALO* NOT AVBL  
LUA MAKIKA* NOT AVBL  

 
 
HIZ014>015-011000-  
LANAI-  
 
CITY SKY/WX TMP DP RH WIND PRES REMARKS
 
LANAI CITY FAIR 72 68 87 NE15 30.14S  
LANAI 1* NOT AVBL  

 
 
HIZ017>028-011000-  
MAUI-  
 
CITY SKY/WX TMP DP RH WIND PRES REMARKS
 
KAHULUI PTCLDY 77 70 79 NE15 30.09S  
KAPALUA-W MAUI NOT AVBL  
HANA AIRPORT NOT AVBL  
HANA* N/A 75 N/A N/A SE3 N/A  
HALEAKALA SUMM N/A 48 27 43 E30 N/A  
MAALAEA BAY* N/A 79 N/A N/A N22G37 N/A  
HALEAKALA* NOT AVBL  
KAUPO GAP* N/A 81 37 21 VRB8G21 N/A  
KULA 1* N/A N/A N/A N/A SE14G26 N/A  

 
 
HIZ023>026-011000-  
BIG ISLAND OF HAWAII COAST AND LOWER SLOPES-  
 
CITY SKY/WX TMP DP RH WIND PRES REMARKS
 
KAILUA KONA MOCLDY 80 73 79 S5 30.03F  
HILO MOCLDY 74 71 91 SW6 30.12S  
HONOKAA* N/A 72 N/A N/A VRB1 N/A  
KAWAIHAE MWT* N/A 81 N/A N/A W5 N/A  
KAWAIHAE* N/A 81 N/A N/A E3 30.04S  
SOUTH POINT* N/A 73 N/A N/A VRB14G21 N/A  
UPOLU AIRPORT* N/A N/A N/A N/A NE22G30 N/A  
KAMUELA* PTSUNNY 64 63 94 NE30 30.15S  
HAKALAU* N/A 55 35 46 SW5G13 N/A  
KALOKO-HONOKO* N/A 77 68 73 E5 30.03S  
PALI 2* N/A 73 39 29 S13G18 N/A  
KEALAKOMO* N/A 79 66 65 NE15G40 N/A  
KAUPULEHU* N/A N/A N/A N/A E10G21 N/A  
KAPAPALA* N/A 63 57 82 NW7 N/A  
LOWER KAHUKU* N/A 66 N/A N/A N2G9 N/A  
PUHE CS* N/A 81 70 69 S1 N/A  
PUHO CS* N/A 75 67 75 E2 N/A  
PTA KEAMUKU* N/A 63 52 67 CALM N/A  
WAIKOLOA* N/A 73 63 68 NE10G24 N/A  

 
 
HIZ027>028-011000-  
BIG ISLAND OF HAWAII INTERIOR AND SUMMMITS-  
 
CITY SKY/WX TMP DP RH WIND PRES REMARKS
 
BRADSHAW FIELD CLOUDY 68 22 18 SE18G32 30.43S  
MK VISITOR CEN N/A 50 27 40 E14 N/A  
MAUNA KEA* N/A 30 14 51 NE25 N/A WCI 16  
MAUNA LOA* N/A N/A N/A N/A MISG N/A  
MAUNA LOA 1* NOT AVBL  
PTA KIPUKA* N/A N/A N/A N/A E13G24 N/A  
PTA RANGE 17* N/A 82 41 23 SE18G30 N/A  
PTA WEST* N/A N/A N/A N/A SE21G35 N/A  
NENE CABIN* N/A N/A N/A N/A E12G20 N/A  
AHUMOA* N/A 58 33 39 NE7 N/A  
PTA PORTABLE* NOT AVBL  
PUU MALI* N/A N/A N/A N/A SE20G33 N/A  

 
 
HIC003-011000-  
NORTHWEST ISLANDS-  
 
CITY SKY/WX TMP DP RH WIND PRES REMARKS
 
MIDWAY ISLAND PTCLDY 77 68 73 E10 30.21R  
MIDWAY NOS* N/A 77 N/A N/A MISG 30.20S  
FRENCH FRIGATE NOT AVBL  

 
 
PHZ110>124-180-011000-  
BUOY REPORTS  
 
STATION/POSITION TIME TEMP WIND PRES WAVE SWELL
 
AIR SEA DIR/SP/G HT/PER HT/DIR  
(UTC) (F) (DEG/KT/KT) (MB) (FT/S) (FT/D)  
BUOY 51001 0900 80 81 90/ 16/ 19 1018.8R  
BUOY 51101 0850 78 79 70/ 19/ 23 1020.9F 7/ 8 3/200  
BUOY 51100 NOT AVBL  
BUOY 51002 0850 80 81 80/ 16/ 21 1016.2R 7/ 8 5  
BUOY 51003 0850 80 81 60/ 14/ 16 1017.7R 6/ 7 5/100  
BUOY 51004 0850 80 80 70/ 17/ 21 1016.9F 7/ 7 3/150  
BARBERS PT BUOY NOT AVBL  
WAIMEA BAY BUOY 0904 79 N/A 4/ 8  
KAILUA BAY BUOY 0911 79 N/A 6/ 7 2/170  
LANAI BUOY 0915 80 N/A 3/13 2/210  
BARBERS PT 2 NOT AVBL  
PAUWELA MAUI 0909 78 N/A 6/ 8  
HILO 0912 80 N/A 6/ 8 2/120  
KANEOHE BAY BUOY 0906 78 N/A 6/ 7  
HANALEI KAUAI NOT AVBL  
KAHULUI HARBOR 0900 78 80 20/ 18/ 20 1019.2F  
HONOLULU HARBOR 0900 79 79 140/ 2/ 5 1019.6F  
KILO NALU NOT AVBL  
HILO HARBOR 0900 74 79 220/ 4/ 5 1019.7F  
MOKUOLOE 0800 79 81 80/ 7/ 10 1020.2R  
NAWILIWILI 0900 78 82 60/ 13/ 16 1020.5R  
WHOTS BUOY NOT AVBL  
BUOY 51028 NOT AVBL  

 
   
.....................KEY.....................................
 
 
SKY/WX - SKY CONDITIONS/PRESENT WEATHER  
TMP - TEMPERATURE IN FAHRENHEIT  
DWPT - DEWPOINT IN FAHRENHEIT  
RH - RELATIVE HUMIDITY IN PERCENT  
WIND - DIRECTION AND SPEED /MPH FOR ISLANDS...KTS FOR BUOYS/  
PRES - MEAN SEA LEVEL PRESSURE IN INCHES OF HG  
VSB - VISIBILITY IN MILES  
HX - HEAT INDEX  
WCI - WIND CHILL INDEX  
VRB - VARIABLE WIND DIRECTION  
N/A - NOT AVAILABLE  
 
 
CLICK HERE TO GO TO PREVIOUS BULLETINS.

The Nexlab HI Page Main Text Page